Regional Weather Roundup
Issued by NWS

Home | Current Version | Previous Version | Text Only | Print | Product List | Glossary Off
Versions: 1 2 3 4 5 6 7 8 9 10 11 12 13 14 15 16 17 18 19 20 21 22 23 24 25 26 27 28 29 30 31 32 33 34 35 36 37 38 39 40 41 42 43 44 45 46 47 48 49 50

000
ASUS43 KDMX 222206
RWRIA

WEATHER ROUNDUP FOR IOWA
NATIONAL WEATHER SERVICE DES MOINES IA
500 PM CDT FRI SEP 22 2017

NOTE: "FAIR" INDICATES FEW OR NO CLOUDS BELOW 12,000 FEET WITH NO
SIGNIFICANT WEATHER AND/OR OBSTRUCTIONS TO VISIBILITY.

* - THESE STATIONS ARE NOT NWS STATIONS...THUS NOT UNDER NWS
QUALITY CONTROL.  THEY ALSO DO NOT REPORT WEATHER SUCH
AS PRECIPITATION OR FOG.

IAZ001>003-012>014-020>022-031>034-043>046-222300-
   NORTHWEST IOWA

CITY           SKY/WX    TMP DP  RH WIND       PRES   REMARKS
CARROLL *      SUNNY     91  68  46 S17G25    29.85S HX  95
CHEROKEE *     SUNNY     90  68  48 S20G30    29.79R HX  94
DENISON *      SUNNY     90  70  51 S20G29    29.84S HX  95
LE MARS *      SUNNY     91  72  52 S23G33    29.74S HX  98
ORANGE CITY *  SUNNY     91  72  52 S24G31    29.76S HX  98
SHELDON *      SUNNY     91  68  46 S20G31    29.75S HX  95
SIOUX CITY     MOSUNNY   93  67  42 S16G25    29.75F HX  96
SPENCER        SUNNY     92  68  45 S28G35    29.79S HX  96
STORM LAKE *   SUNNY     90  70  51 S22G32    29.82R HX  95
$$

IAZ055>058-069>071-079>083-090>094-222300-
   SOUTHWEST IOWA

CITY           SKY/WX    TMP DP  RH WIND       PRES   REMARKS
ATLANTIC *     SUNNY     91  68  46 S14G25    29.86R HX  95
AUDUBON *      SUNNY     90  70  51 S13G24    29.88R HX  95
CLARINDA *     SUNNY     91  68  46 S16G23    29.88S HX  95
COUNCIL BLFS * SUNNY     91  70  49 S24G31    29.83S HX  97
CRESTON *      SUNNY     90  68  48 S18G30    29.92R HX  93
HARLAN  *      SUNNY     91  68  46 S18G26    29.88R HX  95
LAMONI         SUNNY     89  67  47 S14G24    29.92S HX  92
RED OAK *      SUNNY     91  68  46 S18G26    29.85S HX  95
SHENANDOAH *   SUNNY     93  68  43 S16G26    29.85S HX  97
$$

IAZ047>049-059>061-072>074-084-222300-
   CENTRAL IOWA

CITY           SKY/WX    TMP DP  RH WIND       PRES   REMARKS
AMES           SUNNY     89  71  55 S17G26    29.89S HX  95
ANKENY *         N/A     90  68  48 S15G21    29.90S HX  93
BOONE *        SUNNY     91  68  46 S18G25    29.88S HX  95
CHARITON *     SUNNY     88  70  55 S14G21    29.92S HX  92
DES MOINES     MOSUNNY   91  68  46 S16G24    29.89S HX  95
GRINNELL*      SUNNY     89  67  48 S13       29.95S HX  92
KNOXVILLE *    SUNNY     90  68  48 S15       29.91S HX  93
MARSHALLTOWN   SUNNY     90  67  46 S21G29    29.91S HX  93
NEWTON *       SUNNY     90  68  48 S17G23    29.92S HX  93
PELLA *        SUNNY     91  65  41 S13G18    29.94S HX  92
PERRY *          N/A     92  62  35 S16G24    29.88R HX  92
$$

IAZ004>006-015-016-023>025-035-036-222300-
   NORTH CENTRAL IOWA

CITY           SKY/WX    TMP DP  RH WIND       PRES   REMARKS
ALGONA *       SUNNY     91  68  46 S26G32    29.83S HX  95
CLARION *      SUNNY     91  68  46 S18G28    29.87S HX  95
ESTHERVILLE    SUNNY     89  70  53 S24G32    29.80R HX  94
FORT DODGE *   SUNNY     92  66  42 S18G30    29.86R HX  94
MASON CITY     MOSUNNY   91  66  43 S24       29.89S HX  93
FOREST CITY *    N/A     90  64  43 S18G29    29.86S HX  91
WEBSTER CITY * SUNNY     91  68  46 S20G26    29.86R HX  95
IOWA FALLS *     N/A     91  68  47 S18G26    29.91S HX  94
$$

IAZ007>011-017>019-026>030-037>042-050>054-066-222300-
   NORTHEAST IOWA

CITY           SKY/WX    TMP DP  RH WIND       PRES   REMARKS
CEDAR RAPIDS   SUNNY     90  66  45 S17G23    29.95S HX  92
CHARLES CITY * SUNNY     91  66  43 S12G25    29.91S HX  94
CLINTON *      SUNNY    N/A N/A N/A S10       29.99S
DECORAH *      SUNNY     91  64  40 S15G23    29.92S HX  93
DUBUQUE        SUNNY     87  67  51 S15G23    29.99S HX  90
MONTICELLO *   SUNNY     91  64  40 S13G23    29.96S HX  93
OELWEIN *      SUNNY     91  64  40 S20       29.94S HX  93
WATERLOO       SUNNY     91  64  40 S21       29.90S HX  92
$$

IAZ064-065-067-068-078-222300-
   EAST CENTRAL IOWA

CITY           SKY/WX    TMP DP  RH WIND       PRES   REMARKS
DAVENPORT      SUNNY     90  65  43 S12       30.00S HX  92
IOWA CITY      SUNNY     93  67  42 S13       29.96F HX  96
MT. PLEASANT * SUNNY     91  62  37 S10       29.96F HX  92
MUSCATINE *    SUNNY     93  64  38 S14G20    29.95F HX  95
QUAD CITIES    SUNNY     92  64  39 S9        29.97S HX  93
$$

IAZ062-063-075>077-085>089-095>099-222300-
   SOUTHEAST IOWA

CITY           SKY/WX    TMP DP  RH WIND       PRES   REMARKS
BURLINGTON     SUNNY     92  67  43 S10       29.97S HX  95
FAIRFIELD *    MOSUNNY   90  64  43 S13       29.95F HX  91
FORT MADISON * SUNNY     93  64  38 S8        29.98S HX  95
KEOKUK *       SUNNY     93  64  38 S12       29.96S HX  95
OSKALOOSA *      N/A     90  66  45 S14G22    29.94F HX  92
CENTERVILLE *    N/A     90  66  45 S12       29.96F HX  92
OTTUMWA        SUNNY     90  67  46 S15G23    29.93F HX  93
WASHINGTON *   SUNNY     91  68  46 S10G16    29.97S HX  95
$$

ABBREVIATIONS USED IN REMARKS
   TC - TEMPERATURES IN CELSIUS
  WCI - WIND CHILL INDEX
   HX - HEAT INDEX
  VSB - VISIBILITY
$$





USA.gov is the U.S. government's official web portal to all federal, state and local government web resources and services.